Location: Four Corners
(38.2757°N, 122.4608°W)
Time: 18:30:19
(UTC+00:00)

ERBS - Pass Details

Date: 08 December 2019
Orbit: 410 x 430 km, 57.0° (Epoch: 21 January)

Event Time Altitude Azimuth Distance (km) Brightness Sun altitude
Rises 01:19:21 0° 322° (NW) 2,370 6.3 -6.1°
Reaches altitude 10° 01:21:28 10° 327° (NNW) 1,507 5.2 -6.5°
Maximum altitude 01:24:46 51° 45° (NE) 538 2.4 -7.1°
Drops below altitude 10° 01:28:04 10° 123° (ESE) 1,509 4.7 -7.7°
Sets 01:30:11 0° 128° (SE) 2,375 5.8 -8.1°
